Wind_Speed
23 20 14 20 20 19 22 29 14 29 19 14 10 15 16 13 12 10 10 9 7 6 7 9 10 11 11 13 14 15 17 19 20 21 22 23 24 25 25 25 26 27 27 28
9 16 17 21 22 23 29 29 29 31 35 19 3 7 10 11 11 11 10 7 6 6 8 9 9 11 12 14 15 16 17 19 20 21 22 22 23 24 25 26 25 25 27 28
8 2 8 17 24 25 18 19 24 20 24 8 6 11 10 11 11 10 7 6 7 6 7 8 9 10 13 15 16 16 17 18 19 20 23 22 22 23 24 25 27 27 26 26
5 5 9 2 4 2 13 17 19 15 4 6 6 5 8 8 9 7 6 7 5 6 7 8 8 11 12 14 15 16 17 17 18 20 22 22 22 22 23 25 24 25 25 26
4 6 16 13 4 5 7 6 19 15 10 10 8 7 5 7 6 6 6 4 5 6 7 8 9 10 12 13 14 15 16 17 19 20 21 22 22 23 24 23 23 24 25 25
4 5 8 4 1 2 2 6 2 13 15 14 10 6 3 10 8 7 4 4 6 6 7 8 8 10 12 13 13 14 16 19 19 20 20 21 22 22 22 21 21 22 23 22
13 9 10 4 8 3 2 3 6 10 13 14 7 2 10 10 7 5 4 4 5 6 7 7 8 10 11 12 13 15 17 18 19 18 18 19 22 21 21 20 21 23 23 19
8 7 13 9 6 5 2 1 7 9 9 10 7 8 9 7 5 4 4 4 5 5 6 7 8 9 10 12 13 15 17 18 18 18 17 19 20 21 20 19 20 21 21 19
10 7 2 12 1 2 1 4 4 7 7 9 9 7 7 6 4 4 4 4 4 5 7 8 8 8 11 13 13 16 17 17 18 17 18 17 18 19 19 18 18 20 18 18
1 7 13 7 8 3 4 6 7 7 9 8 8 8 6 4 4 4 4 3 4 6 8 9 8 9 9 11 12 14 16 16 17 17 18 18 17 17 16 17 19 20 19 19
6 9 6 9 13 12 8 8 9 8 6 7 8 6 5 4 3 4 3 3 5 6 8 9 9 10 10 10 11 14 14 15 15 15 17 18 17 17 17 16 19 19 19 20
6 3 2 3 6 15 14 12 11 9 8 6 6 6 5 3 3 3 3 5 6 7 8 9 10 10 10 9 11 12 14 15 16 17 16 17 18 21 17 16 18 17 17 19
4 3 2 2 1 11 11 12 10 8 8 9 7 6 5 4 3 3 4 5 7 8 8 9 10 10 9 10 10 11 13 15 17 15 15 17 18 18 21 26 21 17 18 19
5 6 1 6 3 8 9 11 13 9 8 8 8 6 5 4 2 4 4 5 7 7 9 8 9 9 9 10 11 11 13 14 14 15 15 16 17 16 17 19 21 24 22 21
7 2 2 8 9 8 12 12 10 8 6 6 6 5 5 4 5 4 5 6 6 8 7 7 9 9 11 10 11 11 12 14 16 15 14 16 15 15 15 18 19 20 22 21
7 5 6 9 10 9 10 9 8 7 6 6 5 5 4 5 5 5 5 5 5 8 9 9 9 10 11 10 10 11 11 15 15 14 14 14 14 14 16 18 18 18 19 20
9 7 7 7 9 9 7 5 4 6 7 5 4 5 5 4 5 5 4 5 8 10 8 6 10 10 12 12 11 8 13 14 14 11 12 13 13 15 17 17 17 17 18 18
2 4 4 6 8 8 6 6 7 7 4 5 6 5 5 5 6 5 6 7 8 6 2 6 9 12 12 13 9 9 14 12 12 12 12 13 13 16 16 17 16 17 18 18
3 7 5 7 8 7 6 7 6 6 6 7 7 6 5 6 6 6 6 7 6 4 5 10 10 14 13 10 7 14 14 12 11 11 11 13 14 14 15 15 16 17 17 17
8 8 9 8 8 6 6 5 7 8 7 7 4 4 5 6 6 5 6 7 6 4 9 12 15 12 12 3 9 13 13 11 11 11 11 13 13 16 15 15 15 16 16 16
7 9 8 9 8 7 6 9 10 8 7 6 6 5 5 5 6 5 5 4 2 5 9 10 15 16 0 6 13 12 12 11 10 10 11 12 14 15 15 16 15 15 16 17
7 6 8 9 8 7 6 6 5 5 5 6 6 6 5 5 4 5 7 6 7 7 9 9 13 14 3 12 13 11 12 11 10 10 10 11 13 15 16 16 17 18 18 17
10 8 9 9 8 6 5 5 6 5 6 6 6 6 5 4 4 4 3 2 8 11 2 10 11 12 9 14 12 11 12 11 11 10 10 11 13 14 16 17 19 19 23 23
8 8 8 7 5 4 4 5 6 6 6 5 5 4 4 3 4 4 4 7 8 10 7 8 12 12 11 12 10 11 11 11 10 10 11 12 13 15 16 19 23 26 27 27
9 9 8 7 5 6 5 5 5 5 4 4 3 3 4 4 4 4 6 7 8 8 8 10 10 9 9 10 10 12 11 11 11 11 11 12 15 17 18 21 26 25 28 30
9 6 6 9 6 5 5 6 4 3 3 2 1 1 2 2 3 4 6 6 7 7 8 10 8 8 8 9 12 12 12 12 12 10 11 13 15 17 19 24 27 28 32 32
6 6 6 6 7 7 6 6 4 3 3 2 2 1 1 2 3 4 5 6 6 6 9 9 8 8 9 10 12 12 12 12 10 10 12 14 15 18 20 24 26 27 32 32
Wind_Direction
251 264 255 250 246 220 211 228 231 259 249 266 238 204 198 198 198 205 204 212 237 248 266 283 291 295 301 307 313 311 305 303 303 305 307 305 303 302 302 301 297 296 294 291
271 249 252 264 254 239 234 236 240 253 268 274 127 165 183 192 196 198 208 224 226 242 271 287 295 301 307 311 312 309 303 302 306 308 310 310 309 307 304 302 305 304 301 294
273 68 285 275 245 231 234 234 222 237 249 190 174 198 194 179 190 199 213 211 219 262 281 290 297 302 307 309 309 306 304 306 310 313 313 314 313 311 309 310 310 308 306 305
278 297 255 334 174 242 239 242 227 231 172 163 189 149 164 183 186 200 198 201 244 275 283 293 299 303 304 304 305 306 307 310 314 316 315 316 315 312 315 315 311 312 312 312
248 233 295 293 166 195 198 253 221 224 157 138 127 134 183 190 184 183 188 232 263 273 287 293 296 301 301 303 306 308 310 315 317 317 316 317 316 318 317 315 317 317 317 318
174 248 264 66 159 208 232 273 173 187 163 155 156 204 164 165 167 174 215 243 255 278 283 287 297 303 302 306 311 311 315 315 316 316 315 315 315 319 318 318 316 320 319 322
231 246 276 276 146 157 252 6 144 158 158 157 186 45 123 151 170 190 219 241 264 272 286 291 301 301 299 308 310 313 314 315 315 317 316 316 319 322 323 321 321 319 321 315
206 217 262 127 114 210 347 67 136 138 145 152 123 129 148 165 167 180 223 244 269 293 292 297 295 294 299 307 314 316 317 316 318 320 321 320 323 327 327 325 324 323 321 327
202 214 80 190 48 152 262 157 158 132 138 147 147 165 164 166 168 207 231 259 285 289 294 295 290 297 296 308 317 319 319 320 323 324 325 323 328 328 329 330 331 326 331 328
180 225 230 205 218 172 203 175 151 123 145 150 155 156 158 154 191 218 238 273 292 296 297 296 303 308 301 310 316 321 320 323 326 330 330 332 330 330 329 331 329 335 335 332
250 272 254 243 227 209 185 154 133 127 146 155 145 154 154 180 204 229 262 288 290 296 291 296 309 308 312 313 322 324 324 326 330 330 334 332 330 326 325 326 327 334 330 330
262 181 261 274 300 179 164 163 152 145 144 152 150 152 162 192 209 233 275 281 292 289 292 302 308 308 312 319 323 324 327 333 330 330 333 332 332 330 329 327 333 335 334 335
245 139 182 355 58 167 156 154 154 150 157 156 150 151 177 192 206 235 263 279 285 291 297 301 304 305 314 320 325 326 327 328 330 328 326 331 333 332 330 331 336 338 338 340
123 130 148 212 178 151 133 142 143 135 138 147 146 167 176 195 219 256 274 283 289 298 300 299 303 307 318 325 326 326 328 329 330 323 322 324 325 324 326 329 329 330 337 340
164 162 323 115 116 112 128 135 145 153 149 152 174 178 188 209 242 264 278 287 299 300 296 303 312 323 333 332 326 326 329 332 330 322 318 317 318 321 323 327 325 323 329 336
142 125 135 135 131 136 146 157 159 160 175 178 183 193 210 220 253 270 278 293 310 304 309 310 315 331 336 328 324 324 328 329 332 325 320 321 322 323 325 328 325 325 326 330
128 138 138 142 160 166 183 168 165 174 175 176 193 192 196 228 255 263 288 300 301 302 302 306 321 330 336 332 324 319 329 328 330 328 323 321 319 321 322 324 323 323 323 326
99 115 125 145 162 166 164 174 175 165 159 195 186 190 208 232 262 286 300 309 316 326 338 333 328 341 333 336 325 323 332 328 327 325 324 323 324 322 323 325 324 323 324 327
110 118 119 151 153 150 161 171 164 163 178 181 182 206 233 251 264 281 295 308 316 327 344 347 344 338 336 336 333 330 333 333 330 328 326 325 325 327 327 327 324 322 323 327
111 110 106 105 134 149 137 147 159 174 185 184 193 219 250 260 264 276 290 293 285 288 340 345 333 338 337 2 338 336 340 338 332 330 330 329 330 331 331 330 327 326 326 326
125 118 122 114 100 111 137 159 170 179 189 203 215 242 256 268 270 271 280 298 314 337 339 329 339 336 239 329 342 346 344 342 338 334 332 330 332 335 336 335 333 332 329 325
134 136 125 133 138 137 151 161 169 179 201 220 232 246 262 269 261 274 279 267 318 327 322 332 341 344 50 344 350 347 346 345 341 336 331 331 334 335 335 336 334 333 331 327
151 141 149 161 159 161 175 191 201 209 225 237 239 236 236 253 270 283 307 314 328 326 293 336 334 341 1 346 348 347 346 345 341 335 329 332 330 332 333 333 332 336 332 329
144 157 159 161 162 166 202 214 212 223 233 234 237 245 245 265 300 289 286 306 309 316 329 332 333 337 347 345 344 343 341 339 338 336 328 329 334 334 337 339 341 346 341 335
166 163 163 170 191 218 215 202 203 220 221 233 253 264 268 263 249 283 305 312 317 325 322 333 334 338 342 343 340 336 336 338 339 330 334 330 332 334 338 344 348 342 340 347
173 176 190 202 216 211 204 199 215 191 185 192 179 220 273 266 289 281 294 307 311 320 324 333 340 337 340 341 334 339 340 340 340 340 332 332 333 334 338 346 349 349 349 349
167 189 199 212 223 219 215 212 206 202 198 204 226 266 255 283 304 301 312 315 323 328 335 336 339 345 342 337 341 344 345 344 345 335 336 341 339 338 341 346 347 348 348 349
Height
782 778 791 784 782 792 797 777 783 731 745 742 753 770 774 784 792 798 803 805 809 811 812 812 812 812 810 808 806 803 800 797 794 790 785 780 775 770 766 761 755 750 745 739
789 785 785 779 771 767 758 758 756 752 746 747 772 773 780 785 791 795 798 801 806 809 809 808 808 808 806 803 801 800 797 793 789 785 779 774 770 764 759 754 749 743 737 731
771 792 789 764 744 744 746 739 743 760 739 756 773 774 776 784 790 792 795 799 804 805 805 805 804 804 802 800 798 795 792 788 784 779 774 769 764 759 754 748 742 736 730 724
786 789 753 718 748 748 735 736 736 730 750 756 761 771 779 784 787 792 796 799 801 802 803 802 801 800 799 797 794 791 788 783 779 775 770 764 760 755 749 743 737 730 724 718
786 772 727 716 753 754 747 721 729 730 750 765 775 778 781 786 790 792 796 797 800 800 800 799 798 797 796 793 790 787 783 779 775 771 766 761 756 751 744 738 732 726 720 714
791 785 735 740 755 758 754 732 736 733 748 765 776 765 761 785 791 794 796 797 798 798 797 796 795 794 793 790 787 784 780 775 771 767 762 757 753 746 741 735 729 723 716 711
781 775 747 737 754 759 747 727 745 740 750 762 766 764 776 785 790 792 795 797 796 795 793 793 793 792 790 786 783 780 776 772 768 763 759 754 748 742 737 732 726 720 714 707
779 780 764 754 762 753 747 753 749 750 756 764 769 777 781 784 787 790 794 795 794 792 791 791 791 790 786 783 780 777 773 768 764 760 755 750 745 739 734 729 723 717 710 705
760 744 748 749 751 752 757 754 756 755 762 766 772 776 779 782 785 789 792 793 792 790 789 788 788 786 782 780 777 774 769 765 761 756 752 747 742 737 732 726 720 714 708 703
758 733 744 752 752 754 757 755 758 759 765 768 772 775 779 782 786 788 790 790 790 789 787 786 784 782 780 777 775 771 767 762 758 753 748 744 740 736 731 725 719 712 707 702
749 745 749 748 749 752 755 757 760 764 768 771 773 776 778 782 785 787 788 788 788 786 786 784 781 779 777 775 772 768 765 760 756 751 747 742 738 733 729 724 719 713 708 702
726 737 739 738 741 742 749 754 759 764 770 773 774 776 779 782 784 785 786 787 786 785 783 781 779 777 775 772 769 766 762 758 754 750 746 741 736 730 726 722 717 712 707 702
729 742 745 749 744 745 749 754 761 766 769 772 774 777 780 782 783 784 785 785 784 783 781 779 777 775 772 769 767 764 761 757 752 749 745 740 736 730 723 714 713 709 705 700
741 745 747 748 744 749 751 757 763 768 771 772 775 778 779 781 782 783 783 784 783 780 779 777 774 772 769 767 765 762 759 755 752 747 743 739 735 730 726 719 711 704 700 697
741 745 746 746 748 752 756 760 765 768 770 773 775 776 779 780 782 782 782 782 780 778 776 774 771 769 767 765 763 760 757 753 749 745 741 738 733 729 724 718 713 706 700 694
744 746 748 748 751 755 759 762 764 766 770 772 774 776 778 780 781 781 781 779 778 776 773 771 769 767 765 763 760 758 755 752 747 743 739 735 731 727 722 717 712 706 701 695
742 748 750 751 753 756 759 762 764 767 769 771 773 776 778 779 780 779 778 777 775 773 771 769 767 765 763 760 758 756 753 749 745 741 738 734 730 726 721 716 711 706 701 696
740 742 744 746 751 756 760 763 765 766 768 771 774 776 778 778 778 777 776 775 773 770 768 767 765 763 761 758 756 754 751 747 743 740 736 732 729 724 719 714 710 705 700 694
743 744 747 750 753 757 760 762 764 766 770 772 774 775 776 776 775 775 774 773 771 768 767 765 763 761 758 755 754 752 748 745 741 738 734 731 727 722 718 713 709 704 699 693
747 750 751 753 756 758 760 762 765 769 771 772 773 774 775 775 774 773 772 771 769 767 766 763 762 759 756 754 753 750 746 743 740 736 733 729 725 721 717 712 708 703 697 692
751 752 755 756 758 760 762 765 767 769 770 772 773 774 774 773 773 772 771 769 767 766 765 763 759 756 754 753 750 747 744 741 738 735 732 728 724 720 716 711 707 702 696 691
753 755 756 759 761 764 765 767 768 769 770 772 772 773 773 772 771 770 768 768 766 765 763 761 758 755 754 751 748 746 743 740 737 734 731 728 724 720 715 711 706 700 695 690
755 757 759 761 763 765 766 767 768 769 770 771 771 771 771 770 769 768 766 766 765 763 762 760 759 756 752 750 747 744 741 738 735 733 730 727 724 720 715 710 705 699 693 687
757 759 761 763 764 766 767 767 768 768 769 769 769 769 768 768 767 766 765 765 764 763 761 760 757 755 752 749 746 744 741 738 734 732 729 726 722 719 714 709 703 698 692 686
759 761 762 764 766 766 766 767 767 767 767 766 766 766 766 766 766 766 764 764 763 761 760 758 756 754 751 749 746 743 739 736 734 731 728 725 722 718 713 708 702 697 691 685
759 760 762 763 765 765 765 766 766 765 765 765 765 765 765 765 764 764 763 762 761 760 758 756 754 752 750 748 744 741 738 735 732 729 728 724 721 717 712 707 701 695 690 683
759 761 763 764 763 764 764 764 764 763 763 763 763 764 764 763 763 763 762 760 760 759 757 755 753 751 749 746 742 739 736 733 731 729 726 723 719 715 711 706 700 695 689 682